Location: Larrial
(48.2758°N, 4.5331°W)
Time: 11:12:15
(UTC+00:00)

XW-2F - Pass Details

Date: 28 November 2021
Orbit: 495 x 515 km, 97.5° (Epoch: 16 January)

Event Time Altitude Azimuth Distance (km) Brightness Sun altitude
Rises 17:59:33 0° 181° (S) 2,589 ? -14.7°
Reaches altitude 10° 18:01:41 10° 189° (S) 1,714 ? -15.1°
Maximum altitude 18:05:13 43° 261° (W) 728 ? -15.7°
Drops below altitude 10° 18:08:48 10° 334° (NNW) 1,742 ? -16.2°
Sets 18:11:00 0° 342° (NNW) 2,637 ? -16.6°
